• Processing (Info)

  • MPEC 2013-O55 : 2013 ND24

    The following Minor Planet Electronic Circular may be linked-to from your own Web pages, but must not otherwise be redistributed electronically.

    A form allowing access to any MPEC is at the bottom of this page.


    Read MPEC 2013-O54 Read MPEC 2013-O56


    M.P.E.C. 2013-O55                                Issued 2013 July 27, 23:03 UT
    
         The Minor Planet Electronic Circulars contain information on unusual
             minor planets and routine data on comets.  They are published
       on behalf of Commission 20 of the International Astronomical Union by the
              Minor Planet Center, Smithsonian Astrophysical Observatory,
                              Cambridge, MA 02138, U.S.A.
    
                 Prepared using the Tamkin Foundation Computer Network
    
                                  MPC@CFA.HARVARD.EDU
                URL https://www.minorplanetcenter.net/    ISSN 1523-6714
    
                                       2013 ND24
    
    Observations:
         K13N24D  C2013 06 16.46333 18 53 45.601-27 39 29.17         21.2 wLEO055F51
         K13N24D  C2013 06 16.48265 18 53 43.520-27 39 33.56         21.2 wLEO055F51
         K13N24D  C2013 06 16.49230 18 53 42.479-27 39 35.59         21.2 wLEO055F51
         K13N24D  C2013 07 01.37240 18 09 36.574-28 26 17.30         20.5 gLEO055F51
         K13N24D  C2013 07 01.38297 18 09 33.428-28 26 18.04         20.3 gLEO055F51
         K13N24D  C2013 07 06.38008 17 40 57.616-28 18 24.16         20.3 gLEO055F51
         K13N24D* C2013 07 06.38073 17 40 57.353-28 18 23.86         19.9 gLEO055F51
         K13N24D  C2013 07 06.39774 17 40 50.139-28 18 18.91         20.5 gLEO055F51
         K13N24D  C2013 07 06.39839 17 40 49.862-28 18 18.65         20.2 gLEO055F51
         K13N24D _C2013 07 07.43798217 33 28.741-28 12 03.24               tEO055568
         K13N24D _C2013 07 07.45180717 33 22.470-28 11 56.77         19.0 RtEO055568
         K13N24D _C2013 07 07.45339317 33 21.753-28 11 55.98         18.8 RtEO055568
         K13N24D _C2013 07 07.45899317 33 19.207-28 11 53.32         18.9 RtEO055568
    
    Observer details:
    568 Mauna Kea.  Observers R. J. Wainscoat, M. Micheli, D. Woodworth.
        Measurers M. Micheli, R. J. Wainscoat.  3.6-m Canada-France-Hawaii
        Telescope + CCD.
    F51 Pan-STARRS 1, Haleakala.  Observers N. Primak, A. Schultz, T. Goggia,
        K. Chambers, S. Watters.  Measurer PS1 Science Consortium.  1.8-m
        Ritchey-Chretien + CCD.
    
    Orbital elements:
    2013 ND24                                           PHA, Earth MOID = 0.0023 AU
    Epoch 2013 Apr. 18.0 TT = JDT 2456400.5                 MPC
    M 310.81010              (2000.0)            P               Q
    n   0.33723930     Peri.   95.76716     +0.84417916     -0.53306247
    a   2.0441398      Node   296.45764     +0.46339617     +0.77876552
    e   0.7435395      Incl.    3.62610     +0.26949125     +0.33070933
    P   2.92           H   21.2           G   0.15           U   6
    Residuals in seconds of arc
    130616 F51  0.0   0.1+    130706 F51  0.0   0.1+    130707 568  0.1+  0.2-
    130616 F51  0.0   0.1-    130706 F51  0.1+  0.2+    130707 568  0.2+  0.1-
    130616 F51  0.0   0.0     130706 F51  0.0   0.1-    130707 568  0.1+  0.2-
    130701 F51  0.0   0.0     130706 F51  0.1-  0.0
    130701 F51  0.1+  0.0     130707 568  0.0   0.1-
    
    Ephemeris:
    2013 ND24                a,e,i = 2.04, 0.74, 4                   q = 0.5242
    Date    TT    R. A. (2000) Decl.     Delta      r     Elong.  Phase     V
    2013 06 27    18 27 34.1 -28 16 47   0.3579  1.3734   175.0     3.7    20.0
    ...
    2013 07 12    16 54 06.9 -27 10 12   0.2018  1.1883   145.4    29.0    19.4
    ...
    2013 07 20    15 10 42.5 -20 50 54   0.1502  1.0851   113.6    59.1    19.4
    ...
    2013 07 26    13 32 11.7 -10 17 01   0.1384  1.0060    82.1    90.0    20.1
    2013 07 27    13 15 59.4 -08 12 53   0.1393  0.9927    76.7    95.5    20.3
    2013 07 28    13 00 12.6 -06 08 26   0.1409  0.9794    71.3   100.8    20.6
    ...
    2013 08 03    11 38 32.4 +04 55 39   0.1663  0.8992    42.5   130.3    22.8
    ...
    2013 08 11    10 26 03.4 +13 50 31   0.2311  0.7930    15.3   160.3    28.6
    ...
    2013 08 26    09 23 44.7 +19 18 29   0.4245  0.6135    15.9   153.1    27.3
    
    A. U. Tomatic                (C) Copyright 2013 MPC           M.P.E.C. 2013-O55
    

    Read MPEC 2013-O54 Read MPEC 2013-O56


    MPEC number:

    Enter an MPEC number in one of the following forms:

    • 1997-B01 (the full form)
    • J97B01 (the packed version of the full form)
    • B01 (the abbreviated form)